N410HA KLXV-KLXV

Flight info

Callsign N410HA
Flight time N/A
Altitude 14500
Route VFR VIA KASE KGWS KEGE
Aircraft EC30/L-VGD/C

Departure

Time 2026-04-21 23:53
Airport Lake County Airport (KLXV)

Arrival

Time N/A
Airport Lake County Airport (KLXV)
Time Latitude Longitude Altitude Speed Heading
2026-04-21 23:16 39.22004 -106.31525 9972 ft 0 kts 352°
2026-04-21 23:52 39.22013 -106.31519 9981 ft 4 kts 348°
2026-04-21 23:52 39.22026 -106.31441 10171 ft 15 kts 43°
2026-04-21 23:53 39.21950 -106.31319 10524 ft 32 kts 150°
2026-04-21 23:53 39.21585 -106.31162 10795 ft 82 kts 175°
2026-04-21 23:53 39.21103 -106.31338 11297 ft 72 kts 187°
2026-04-21 23:53 39.20557 -106.31435 11589 ft 91 kts 185°
2026-04-21 23:54 39.19846 -106.31515 11667 ft 113 kts 188°
2026-04-21 23:54 39.19049 -106.31641 11739 ft 117 kts 188°
2026-04-21 23:54 39.18234 -106.31762 11849 ft 116 kts 191°
2026-04-21 23:54 39.17436 -106.31883 11963 ft 116 kts 189°
2026-04-21 23:55 39.16622 -106.32005 12073 ft 116 kts 189°
2026-04-21 23:55 39.15810 -106.32124 12187 ft 118 kts 185°
2026-04-21 23:55 39.14995 -106.32091 12281 ft 119 kts 174°
2026-04-21 23:55 39.14165 -106.32006 12396 ft 118 kts 179°
2026-04-21 23:56 39.13358 -106.31890 12509 ft 117 kts 177°
2026-04-21 23:56 39.12538 -106.31800 12630 ft 118 kts 177°
2026-04-21 23:56 39.11716 -106.31697 12742 ft 117 kts 178°
2026-04-21 23:56 39.10905 -106.31603 12854 ft 117 kts 176°
2026-04-21 23:57 39.10066 -106.31737 12820 ft 122 kts 204°
2026-04-21 23:57 39.09360 -106.32400 12843 ft 123 kts 219°
2026-04-21 23:57 39.08767 -106.33307 12750 ft 127 kts 232°
2026-04-21 23:57 39.08248 -106.34291 12654 ft 130 kts 238°
2026-04-21 23:58 39.07744 -106.35305 12634 ft 125 kts 240°
2026-04-21 23:58 39.07359 -106.36319 12645 ft 124 kts 244°
2026-04-21 23:58 39.07044 -106.37361 12641 ft 125 kts 256°
2026-04-21 23:58 39.06819 -106.38439 12650 ft 124 kts 255°
2026-04-21 23:59 39.06655 -106.39520 12643 ft 124 kts 261°
2026-04-21 23:59 39.06559 -106.40632 12648 ft 126 kts 268°
2026-04-21 23:59 39.06520 -106.41753 12661 ft 124 kts 267°
2026-04-21 23:59 39.06605 -106.42869 12660 ft 125 kts 277°
2026-04-22 00:00 39.06741 -106.43971 12665 ft 125 kts 278°
2026-04-22 00:00 39.06876 -106.45085 12656 ft 124 kts 278°
2026-04-22 00:00 39.06864 -106.46191 12657 ft 124 kts 267°
2026-04-22 00:00 39.06820 -106.47314 12654 ft 125 kts 267°
2026-04-22 00:01 39.06774 -106.48421 12650 ft 123 kts 267°
2026-04-22 00:01 39.06809 -106.49531 12645 ft 124 kts 276°
2026-04-22 00:01 39.06981 -106.50613 12674 ft 122 kts 279°
2026-04-22 00:01 39.07288 -106.51590 12832 ft 117 kts 297°
2026-04-22 00:02 39.07678 -106.52502 13014 ft 114 kts 295°
2026-04-22 00:02 39.08066 -106.53381 13190 ft 114 kts 296°
2026-04-22 00:02 39.08500 -106.54243 13336 ft 116 kts 306°
2026-04-22 00:02 39.09007 -106.55051 13482 ft 115 kts 304°